DB0TGO-13 Weather Reports


Display with metric or nautical units.
time (UTC)temp
F
wind
direction
speed
MPH
gust
MPH
rain 1hr
in
rain 24hr
in
rain mn
in
humidity
%
barometer
mb
20260904204510 62 250 11.0 0.0 0.00 0.00 0.00 90 1002.7
20260904203009 62 260 10.0 0.0 0.00 0.00 0.00 90 1002.7
20260904201510 62 260 10.0 0.0 0.00 0.00 0.00 90 1002.5
20260904200009 62 260 10.0 0.0 0.00 0.00 0.00 90 1002.5
20260904193009 61 240 11.0 0.0 0.00 0.00 0.00 91 1002.7
20260904191509 61 240 11.0 0.0 0.00 0.00 0.00 91 1001.8
20260904190009 61 250 10.0 0.0 0.00 0.00 0.00 91 1001.8
20260904184509 63 230 10.0 0.0 0.00 0.00 0.00 87 1001.7
20260904183010 63 230 10.0 0.0 0.00 0.00 0.00 87 1001.7
20260904181509 64 240 12.0 0.0 0.00 0.00 0.00 84 1001.5
20260904180009 64 240 12.0 0.0 0.00 0.00 0.00 84 1001.5
20260904174509 65 240 12.0 0.0 0.00 0.00 0.00 80 1001.3
20260904173010 65 260 12.0 0.0 0.00 0.00 0.00 80 1001.3
20260904171509 66 260 12.0 0.0 0.00 0.00 0.00 82 1001.3
20260904170010 66 260 13.0 0.0 0.00 0.00 0.00 82 1001.3
20260904164509 67 260 13.0 0.0 0.00 0.00 0.00 89 1001.1
20260904163010 67 270 13.0 0.0 0.00 0.00 0.00 89 1001.1
20260904161510 68 270 13.0 0.0 0.00 0.00 0.00 87 1000.9
20260904160009 68 280 16.0 0.0 0.00 0.00 0.00 87 1000.9
20260904154511 67 280 16.0 0.0 0.00 0.00 0.00 91 1000.1
20260904153009 67 280 22.0 0.0 0.00 0.00 0.00 91 1000.1
20260904151509 78 280 22.0 0.0 0.00 0.00 0.00 55 998.7
20260904150010 78 250 15.0 0.0 0.00 0.00 0.00 55 998.7
20260904144510 78 250 15.0 0.0 0.00 0.00 0.00 57 998.9
20260904143009 78 240 16.0 0.0 0.00 0.00 0.00 57 998.9
20260904141510 77 240 16.0 0.0 0.00 0.00 0.00 59 999.2
20260904140010 77 240 16.0 0.0 0.00 0.00 0.00 59 999.2
20260904134509 75 240 16.0 0.0 0.00 0.00 0.00 61 999.8
20260904133010 75 240 14.0 0.0 0.00 0.00 0.00 61 999.8
20260904131509 75 230 11.0 0.0 0.00 0.00 0.00 62 1000.4
20260904130009 75 230 11.0 0.0 0.00 0.00 0.00 62 1000.4
20260904124509 74 230 11.0 0.0 0.00 0.00 0.00 62 1000.7
20260904123010 74 230 12.0 0.0 0.00 0.00 0.00 62 1000.7
20260904121509 74 230 12.0 0.0 0.00 0.00 0.00 63 1001.4
20260904120010 74 230 12.0 0.0 0.00 0.00 0.00 63 1001.4
20260904114510 75 230 12.0 0.0 0.00 0.00 0.00 62 1002.0
20260904113009 75 230 11.0 0.0 0.00 0.00 0.00 62 1002.0
20260904111509 73 230 11.0 0.0 0.00 0.00 0.00 65 1002.6
20260904110010 73 230 11.0 0.0 0.00 0.00 0.00 65 1002.6
20260904104510 73 230 11.0 0.0 0.00 0.00 0.00 67 1003.0
20260904103010 73 230 12.0 0.0 0.00 0.00 0.00 67 1003.0
20260904101510 72 230 12.0 0.0 0.00 0.00 0.00 67 1003.3
20260904100011 72 230 13.0 0.0 0.00 0.00 0.00 67 1003.3
20260904094511 73 230 13.0 0.0 0.00 0.00 0.00 67 1003.6
20260904093009 73 240 12.0 0.0 0.00 0.00 0.00 67 1003.6
20260904091510 71 240 12.0 0.0 0.00 0.00 0.00 71 1004.1
20260904090009 71 220 9.0 0.0 0.00 0.00 0.00 71 1004.1
20260904084510 69 220 8.0 0.0 0.00 0.00 0.00 74 1004.3
20260904083009 69 220 8.0 0.0 0.00 0.00 0.00 74 1004.3
20260904081508 66 220 8.0 0.0 0.00 0.00 0.00 77 1005.6
20260904073010 66 210 6.0 0.0 0.00 0.00 0.00 77 1005.6
20260904071509 66 210 6.0 0.0 0.00 0.00 0.00 77 1005.6
20260904070012 66 210 6.0 0.0 0.00 0.00 0.00 77 1005.6
20260904064509 66 210 6.0 0.0 0.00 0.00 0.00 78 1005.9
20260904063010 66 210 7.0 0.0 0.00 0.00 0.00 78 1005.9
20260904061510 65 210 7.0 0.0 0.00 0.00 0.00 79 1006.5
20260904060010 65 220 6.0 0.0 0.00 0.00 0.00 79 1006.5
20260904054510 65 220 6.0 0.0 0.00 0.00 0.00 81 1006.6
20260904053010 65 220 6.0 0.0 0.00 0.00 0.00 81 1006.6
20260904051509 65 210 7.0 0.0 0.00 0.00 0.00 80 1006.5
20260904050009 65 210 7.0 0.0 0.00 0.00 0.00 80 1006.5
20260904044509 64 210 5.0 0.0 0.00 0.00 0.00 80 1007.1
20260904043010 64 210 5.0 0.0 0.00 0.00 0.00 80 1007.1
20260904041510 64 220 4.0 0.0 0.00 0.00 0.00 78 1007.5
20260904040010 64 220 4.0 0.0 0.00 0.00 0.00 78 1007.5
20260904034509 65 240 4.0 0.0 0.00 0.00 0.00 76 1007.8
20260904033010 65 240 4.0 0.0 0.00 0.00 0.00 76 1007.8
20260904031509 65 230 5.0 0.0 0.00 0.00 0.00 76 1007.4
20260904030008 65 230 5.0 0.0 0.00 0.00 0.00 76 1007.4